Weather History for KTCC - January, 2014

Change the Weather History Date:

Thursday, January 2, 2014

  Actual Average Record
Temperature  
Mean Temperature 34 °F -  
Max Temperature 50 °F 48 °F 77 °F (1997)
Min Temperature 19 °F 21 °F -17 °F (1919)
Degree Days  
Heating Degree Days 30    
Moisture  
Dew Point 20 °F    
Average Humidity 58    
Maximum Humidity 85    
Minimum Humidity 32    
Precipitation  
Precipitation 0.00 in - - ()
Sea Level Pressure  
Sea Level Pressure 30.31 in    
Wind  
Wind Speed 8 mph (SW)    
Max Wind Speed 17 mph    
Max Gust Speed 24 mph    
Visibility 10 miles    
Events      
Averages and records for this station are not official NWS values.
T = Trace of Precipitation, MM = Missing Value Source: NWS Daily Summary

Daily Weather History Graph

Daily Weather History Graph

Search for Another Location

Airport or City:

Trip Planner

Search our weather history database for the weather conditions in past years. The results will help you decide how hot, cold, wet, or windy it might be!

Date:

Astronomy

Jan. 02, 2014 Rise Set
Actual Time 7:03 AM MST 4:54 PM MST
Civil Twilight 6:35 AM MST 5:22 PM MST
Nautical Twilight 6:03 AM MST 5:53 PM MST
Astronomical Twilight 5:32 AM MST 6:24 PM MST
Moon 7:50 AM MST (1/2) 6:48 PM MST (1/2)
Length of Visible Light 10h 47m
Length of Day
9h 51m
Waxing Crescent, 3% of the Moon is Illuminated
Jan 2
Waxing Crescent
Jan 7
First Quarter
Jan 15
Full
Jan 23
Last Quarter
Jan 30
New

Hourly Weather History & Observations

Time (MST) Temp. Windchill Dew Point Humidity Pressure Visibility Wind Dir Wind Speed Gust Speed Precip Events Conditions
12:53 AM 25.0 °F 18.1 °F 19.9 °F 81% 30.35 in 10.0 mi West 5.8 mph - N/A   Clear
1:53 AM 24.1 °F 17.0 °F 19.9 °F 84% 30.36 in 10.0 mi WSW 5.8 mph - N/A   Clear
2:53 AM 23.0 °F 15.8 °F 19.0 °F 85% 30.37 in 10.0 mi West 5.8 mph - N/A   Clear
3:53 AM 24.1 °F 15.2 °F 19.0 °F 81% 30.37 in 10.0 mi West 8.1 mph - N/A   Clear
4:53 AM 21.9 °F 14.5 °F 17.1 °F 82% 30.39 in 10.0 mi West 5.8 mph - N/A   Clear
5:53 AM 19.9 °F 10.1 °F 16.0 °F 85% 30.40 in 10.0 mi SW 8.1 mph - N/A   Clear
6:53 AM 19.0 °F 13.9 °F 14.0 °F 81% 30.43 in 10.0 mi South 3.5 mph - N/A   Clear
7:53 AM 21.9 °F - 17.1 °F 82% 30.44 in 10.0 mi Calm Calm - N/A   Clear
8:53 AM 30.0 °F 24.1 °F 23.0 °F 75% 30.43 in 10.0 mi South 5.8 mph - N/A   Clear
9:53 AM 39.0 °F 31.4 °F 25.0 °F 57% 30.41 in 10.0 mi SW 12.7 mph - N/A   Clear
10:53 AM 44.1 °F 37.1 °F 25.0 °F 47% 30.37 in 10.0 mi SW 15.0 mph 24.2 mph N/A   Clear
11:53 AM 46.9 °F - 23.0 °F 39% 30.32 in 10.0 mi SW 17.3 mph - N/A   Clear
12:53 PM 48.9 °F - 23.0 °F 36% 30.28 in 10.0 mi WSW 15.0 mph - N/A   Clear
1:53 PM 50.0 °F - 21.9 °F 33% 30.25 in 10.0 mi SW 12.7 mph - N/A   Clear
2:53 PM 50.0 °F - 21.9 °F 33% 30.25 in 10.0 mi SW 10.4 mph - N/A   Clear
3:53 PM 50.0 °F - 21.0 °F 32% 30.24 in 10.0 mi SSW 10.4 mph - N/A   Clear
4:53 PM 44.1 °F 40.1 °F 19.9 °F 38% 30.26 in 10.0 mi SSW 6.9 mph - N/A   Clear
5:53 PM 39.9 °F 37.8 °F 19.9 °F 45% 30.27 in 10.0 mi SSW 3.5 mph - N/A   Clear
6:53 PM 37.0 °F 31.6 °F 21.0 °F 52% 30.29 in 10.0 mi SW 6.9 mph - N/A   Clear
7:53 PM 37.0 °F 33.3 °F 19.9 °F 50% 30.27 in 10.0 mi SSW 4.6 mph - N/A   Clear
8:53 PM 37.9 °F 31.5 °F 19.9 °F 48% 30.24 in 10.0 mi SW 9.2 mph - N/A   Clear
9:53 PM 37.0 °F 30.4 °F 19.9 °F 50% 30.20 in 10.0 mi SSW 9.2 mph - N/A   Clear
10:53 PM 36.0 °F 28.5 °F 19.9 °F 52% 30.17 in 10.0 mi WSW 10.4 mph - N/A   Clear
11:53 PM 37.0 °F 28.9 °F 21.9 °F 54% 30.13 in 10.0 mi WSW 12.7 mph - N/A   Clear